Burns, OR

2:58 PM PST on December 10, 2016 (GMT -0800)
Burns Municipal

Weather History for KBNO - October, 2013

Change the Weather History Date:

Thursday, October 31, 2013

  Actual Average Record
Temperature  
Mean Temperature 41 °F 39 °F  
Max Temperature 59 °F 54 °F 73 °F (1967)
Min Temperature 23 °F 25 °F -7 °F (2002)
Degree Days  
Heating Degree Days 24 26  
Month to date heating degree days 725 632  
Since 1 July heating degree days 1017 1050  
Cooling Degree Days 0 0  
Month to date cooling degree days 0 0  
Year to date cooling degree days 372 215  
Moisture  
Dew Point 32 °F    
Average Humidity 72    
Maximum Humidity 92    
Minimum Humidity 51    
Precipitation  
Precipitation 0.01 in 0.03 in 0.38 in (1944)
Month to date precipitation 0.30 0.78  
Year to date precipitation 6.23 8.20  
Sea Level Pressure  
Sea Level Pressure 30.24 in    
Wind  
Wind Speed 4 mph (WNW)    
Max Wind Speed 17 mph    
Max Gust Speed 21 mph    
Visibility 10 miles    
Events      
T = Trace of Precipitation, MM = Missing Value Source: NWS Daily Summary

Daily Weather History Graph

Daily Weather History Graph

Search for Another Location

Airport or City:

Trip Planner

Search our weather history database for the weather conditions in past years. The results will help you decide how hot, cold, wet, or windy it might be!

Date:

Astronomy

Oct. 31, 2013 Rise Set
Actual Time 7:30 AM PDT 5:47 PM PDT
Civil Twilight 7:00 AM PDT 6:17 PM PDT
Nautical Twilight 6:26 AM PDT 6:51 PM PDT
Astronomical Twilight 5:53 AM PDT 7:24 PM PDT
Moon 4:19 AM PDT (10/31) 4:12 PM PDT (10/31)
Length of Visible Light 11h 16m
Length of Day
10h 16m
Waning Crescent, 9% of the Moon is Illuminated
Oct 31
Waning Crescent
Nov 3
New
Nov 9
First Quarter
Nov 17
Full
Nov 25
Last Quarter

Hourly Weather History & Observations

Time (PDT) Temp. Windchill Dew Point Humidity Pressure Visibility Wind Dir Wind Speed Gust Speed Precip Events Conditions
12:53 AM 26.1 °F - 23.0 °F 88% 30.22 in 10.0 mi Calm Calm - N/A   Clear
1:53 AM 24.1 °F 18.2 °F 21.9 °F 91% 30.22 in 10.0 mi SE 4.6 mph - N/A   Clear
2:53 AM 25.0 °F 20.7 °F 23.0 °F 92% 30.22 in 10.0 mi NW 3.5 mph - N/A   Overcast
3:53 AM 24.1 °F - 21.9 °F 91% 30.22 in 10.0 mi Calm Calm - N/A   Clear
4:31 AM 24.1 °F 19.7 °F 21.9 °F 91% 30.18 in 10.0 mi NNW 3.5 mph - N/A   Scattered Clouds
4:53 AM 24.1 °F - 21.9 °F 91% 30.23 in 10.0 mi Calm Calm - N/A   Scattered Clouds
5:53 AM 26.1 °F - 25.0 °F 96% 30.24 in 10.0 mi Calm Calm - N/A   Mostly Cloudy
6:30 AM 28.0 °F - 27.0 °F 96% 30.20 in 10.0 mi Calm Calm - N/A   Overcast
6:53 AM 30.0 °F 26.5 °F 28.9 °F 96% 30.27 in 5.0 mi West 3.5 mph - 0.01 in   Overcast
7:04 AM 30.9 °F - 30.0 °F 96% 30.20 in 4.0 mi Calm Calm - 0.00 in   Overcast
7:27 AM 30.9 °F 27.5 °F 30.0 °F 96% 30.20 in 10.0 mi SE 3.5 mph - 0.00 in   Overcast
7:53 AM 32.0 °F - 30.0 °F 92% 30.28 in 10.0 mi Calm Calm - 0.00 in   Overcast
8:53 AM 32.0 °F - 28.9 °F 88% 30.31 in 10.0 mi Calm Calm - N/A   Scattered Clouds
9:22 AM 34.0 °F - 30.9 °F 89% 30.23 in 10.0 mi Calm Calm - N/A   Mostly Cloudy
9:53 AM 35.1 °F 32.2 °F 30.9 °F 85% 30.31 in 10.0 mi Variable 3.5 mph - N/A   Mostly Cloudy
10:53 AM 39.9 °F 37.8 °F 33.1 °F 77% 30.28 in 10.0 mi Variable 3.5 mph - N/A   Clear
11:53 AM 46.9 °F - 37.0 °F 68% 30.25 in 10.0 mi Calm Calm - N/A   Clear
12:53 PM 52.0 °F - 39.0 °F 61% 30.22 in 10.0 mi Calm Calm - N/A   Overcast
1:53 PM 52.0 °F - 41.0 °F 66% 30.22 in 10.0 mi North 5.8 mph - 0.00 in   Overcast
2:53 PM 53.1 °F - 41.0 °F 64% 30.22 in 10.0 mi Calm Calm - N/A   Overcast
3:53 PM 57.9 °F - 39.9 °F 51% 30.19 in 10.0 mi WNW 15.0 mph - N/A   Partly Cloudy
4:53 PM 55.0 °F - 39.0 °F 55% 30.21 in 10.0 mi West 13.8 mph - N/A   Scattered Clouds
5:53 PM 50.0 °F - 37.9 °F 63% 30.21 in 10.0 mi WSW 8.1 mph - N/A   Partly Cloudy
6:53 PM 41.0 °F 37.1 °F 36.0 °F 82% 30.23 in 10.0 mi WNW 5.8 mph - N/A   Partly Cloudy
7:53 PM 39.9 °F 35.1 °F 36.0 °F 86% 30.24 in 10.0 mi NNW 6.9 mph - N/A   Mostly Cloudy
8:53 PM 42.1 °F 36.6 °F 37.9 °F 85% 30.25 in 10.0 mi West 9.2 mph - N/A   Mostly Cloudy
9:53 PM 39.0 °F 36.8 °F 36.0 °F 89% 30.26 in 10.0 mi West 3.5 mph - N/A   Clear
10:53 PM 37.0 °F 32.4 °F 35.1 °F 93% 30.27 in 10.0 mi NNW 5.8 mph - N/A   Overcast
11:53 PM 35.1 °F 32.2 °F 34.0 °F 96% 30.27 in 10.0 mi West 3.5 mph - N/A   Mostly Cloudy